Bluefield, WV

11:46 AM EDT on September 28, 2016 (GMT -0400)
Mercer County

Weather History for KBLF - November, 2011

Change the Weather History Date:

Tuesday, November 1, 2011

  Actual Average Record
Temperature  
Mean Temperature 48 °F 52 °F  
Max Temperature 60 °F 61 °F 79 °F (2004)
Min Temperature 36 °F 43 °F 26 °F (1993)
Degree Days  
Heating Degree Days 17 13  
Month to date heating degree days 17 13  
Since 1 July heating degree days 416 377  
Cooling Degree Days 0 0  
Month to date cooling degree days 0 0  
Year to date cooling degree days 1102 851  
Moisture  
Dew Point 29 °F    
Average Humidity 53    
Maximum Humidity 76    
Minimum Humidity 30    
Precipitation  
Precipitation 0.00 in 0.09 in 0.95 in (1972)
Month to date precipitation 0.00 0.09  
Year to date precipitation 36.63 34.12  
Snow  
Snow 0.00 in - - ()
Month to date snowfall 0.0  
Since 1 July snowfall T  
Since 1 September snowfall T  
Snow Depth 0.00 in    
Sea Level Pressure  
Sea Level Pressure 30.28 in    
Wind  
Wind Speed 4 mph (SW)    
Max Wind Speed 7 mph    
Max Gust Speed -    
Visibility 10 miles    
Events      
T = Trace of Precipitation, MM = Missing Value Source: NWS Daily Summary

Daily Weather History Graph

Daily Weather History Graph

Search for Another Location

Airport or City:

Trip Planner

Search our weather history database for the weather conditions in past years. The results will help you decide how hot, cold, wet, or windy it might be!

Date:

Astronomy

Nov. 01, 2011 Rise Set
Actual Time 7:49 AM EDT 6:27 PM EDT
Civil Twilight 7:22 AM EDT 6:54 PM EDT
Nautical Twilight 6:51 AM EDT 7:24 PM EDT
Astronomical Twilight 6:20 AM EDT 7:55 PM EDT
Moon 1:33 PM EDT (11/1) No Moon Set
Length of Visible Light 11h 32m
Length of Day
10h 38m
Waxing Crescent, 39% of the Moon is Illuminated
Nov 1
Waxing Crescent
Nov 2
First Quarter
Nov 10
Full
Nov 18
Last Quarter
Nov 25
New

Hourly Weather History & Observations

Time (EDT) Temp. Windchill Dew Point Humidity Pressure Visibility Wind Dir Wind Speed Gust Speed Precip Events Conditions
12:52 AM 37.0 °F 31.6 °F 30.9 °F 79% 30.23 in 10.0 mi WSW 6.9 mph - N/A   Clear
1:52 AM 37.9 °F 33.5 °F 30.0 °F 73% 30.22 in 10.0 mi SW 5.8 mph - N/A   Clear
2:52 AM 37.0 °F 32.4 °F 30.0 °F 76% 30.22 in 10.0 mi WSW 5.8 mph - N/A   Clear
3:52 AM 37.9 °F 34.4 °F 30.0 °F 73% 30.23 in 10.0 mi WSW 4.6 mph - N/A   Clear
4:52 AM 39.9 °F 37.8 °F 30.0 °F 68% 30.23 in 10.0 mi WNW 3.5 mph - N/A   Clear
5:52 AM 36.0 °F 31.1 °F 28.9 °F 76% 30.27 in 10.0 mi SW 5.8 mph - N/A   Clear
6:52 AM 37.9 °F 35.5 °F 30.0 °F 73% 30.27 in 10.0 mi SW 3.5 mph - N/A   Clear
7:52 AM 39.0 °F - 30.0 °F 70% 30.29 in 10.0 mi Calm Calm - N/A   Clear
8:52 AM 42.1 °F 40.2 °F 32.0 °F 67% 30.30 in 10.0 mi WSW 3.5 mph - N/A   Clear
9:52 AM 45.0 °F 43.5 °F 34.0 °F 65% 30.32 in 10.0 mi WSW 3.5 mph - N/A   Clear
10:52 AM 48.9 °F - 34.0 °F 56% 30.33 in 10.0 mi WSW 3.5 mph - N/A   Clear
11:52 AM 51.1 °F - 30.9 °F 46% 30.34 in 10.0 mi West 3.5 mph - N/A   Clear
12:52 PM 54.0 °F - 27.0 °F 35% 30.32 in 10.0 mi Variable 3.5 mph - N/A   Clear
1:52 PM 55.9 °F - 27.0 °F 33% 30.29 in 10.0 mi Variable 3.5 mph - N/A   Clear
3:52 PM 59.0 °F - 28.0 °F 31% 30.26 in 10.0 mi Calm Calm - N/A   Clear
4:52 PM 59.0 °F - 28.0 °F 31% 30.27 in 10.0 mi Calm Calm - N/A   Clear
5:52 PM 57.9 °F - 27.0 °F 31% 30.28 in 10.0 mi Calm Calm - N/A   Clear
6:52 PM 54.0 °F - 26.1 °F 34% 30.30 in 10.0 mi WNW 3.5 mph - N/A   Clear
7:52 PM 51.1 °F - 28.0 °F 41% 30.32 in 10.0 mi ESE 3.5 mph - N/A   Clear
8:52 PM 48.9 °F - 28.9 °F 46% 30.32 in 10.0 mi ESE 3.5 mph - N/A   Clear
9:52 PM 50.0 °F - 28.9 °F 44% 30.32 in 10.0 mi SE 4.6 mph - N/A   Clear
10:52 PM 48.9 °F - 28.9 °F 46% 30.31 in 10.0 mi SSE 4.6 mph - N/A   Clear
11:52 PM 50.0 °F - 28.9 °F 44% 30.30 in 10.0 mi Calm Calm - N/A   Clear